Location: Mascot Post Office (historical)
(40.2645°N, 99.5462°W)
Time: 02:08:37
(UTC+00:00)

USA 267 - Pass Details

Date: 14 July 2020
Orbit: 1102 x 1106 km, 123.0° (Epoch: 12 August)

Event Time Altitude Azimuth Distance (km) Brightness Sun altitude
Exits shadow 07:41:26 53° 236° (SW) 1,329 3.3 -26.7°
Drops below altitude 10° 07:47:36 10° 305° (NW) 2,962 5.7 -26.4°
Sets 07:50:10 0° 310° (NW) 3,923 6.5 -26.3°
